Accueil
METAR-TAF:

METAR-TAF

Aéroports :

Beverly, Massachusetts, États-Unis

latitude: 42-35-01N, longitude: 070-54-59W, altitude: 33 m

Observation

Le bulletin a été fait il y a 25 minutes, à 06:53 UTC
Vent 6 kt de nord
Température 10°C
Humidité 93%
Pression 1028 hPa
Visibilité: 16.1 km
Ciel clair

METAR: KBVY 240653Z AUTO 36006KT 10SM CLR 10/09 A3036 RMK AO2 SLP276 T01000089

Heure: 03:18 (07:18 UTC)


TAF: absent

Observations et prévisions météorologiques de plus de 4000 aéroports (messages METAR et TAF).

Les stations disponibles sont représentées par des disques jaunes et rouges sur la carte.

Passer la souris dessus pour voir le nom de la station.

Cliquer dessus pour voir les observations et prévisions météorologiques.

Pour changer de carte: cliquez sur les boutons verts avec une croix noire pour zoomer, sur le bouton vert avec un tiret pour effectuer un zoom arrière, ou sur les flèches vertes pour les cartes adjacentes.


METAR-TAF: